SCP
0 0 0 0 0 0 0 0 0 0 0 0 0 0 0 0 0 0 0 0 0 0 0 0 0 0 0 0 0 0 0 0 0 0 0 0 0 0 0 0 0 0 0
0 0 0 0 0 0 0 0 0 0 0 0 0 0 0 0 0 0 0 0 0 0 0 0 0 0 0 0 0 0 0 0 0 0 0 0 0 0 0 0 0 0 0
0 0 0 0 0 0 0 0 0 0 0 0 0 0 0 0 0 0 0 0 0 0 0 0 0 0 0 0 0 0 0 0 0 0 0 0 0 0 0 0 0 0 0
0 0 0 0 0 0 0 0 0 0 0 0 0 0 0 0 0 0 0 0 0 0 0 0 0 0 0 0 0 0 0 0 0 0 0 0 0 0 0 0 0 0 0
0 0 0 0 0 0 0 0 0 0 0 0 0 0 0 0 0 0 0 0 0 0 0 0 0 0 0 0 0 0 0 0 0 0 0 0 0 0 0 0 0 0 0
0 0 0 0 0 0 0 0 0 0 0 0 0 0 0 0 0 0 0 0 0 0 0 0 0 0 0 0 0 0 0 0 0 0 0 0 0 0 0 0 0 0 0
0 0 0 0 0 0 0 0 0 0 0 0 0 0 0 0 0 0 0 0 0 0 0 0 0 0 0 0 0 0 0 0 0 0 0 0 0 0 0 0 0 0 0
0 0 0 0 0 0 0 0 0 0 0 0 0 0 0 0 0 0 0 0 0 0 0 0 0 0 0 0 0 0 0 0 0 0 0 0 0 0 0 0 0 0 0
0 0 0 0 0 0 0 0 0 0 0 0 0 0 0 0 0 0 0 0 0 0 0 0 0 0 0 0 0 0 0 0 0 0 0 0 0 0 0 0 0 0 0
0 0 0 0 0 0 0 0 0 0 0 0 0 0 0 0 0 0 0 0 0 0 0 0 0 0 0 0 0 0 0 0 0 0 0 0 0 0 0 0 0 0 0
0 0 0 0 0 0 0 0 0 0 0 0 0 0 0 0 0 0 0 0 0 0 0 0 0 0 0 0 0 0 0 0 0 0 0 0 0 0 0 0 0 0 0
0 0 0 0 0 0 0 0 0 0 0 0 0 0 0 0 0 0 0 0 0 0 0 0 0 0 0 0 0 0 0 0 0 0 0 0 0 0 0 0 0 0 0
0 0 0 0 0 0 0 0 0 0 0 0 0 0 0 0 0 0 0 0 0 0 0 0 0 0 0 0 0 0 0 0 0 0 0 0 0 0 0 0 0 0 0
0 0 0 0 0 0 0 0 0 0 0 0 0 0 0 0 0 0 0 0 0 0 0 0 0 0 0 0 0 0 0 0 0 0 0 0 0 0 0 0 0 0 0
0 0 0 0 0 0 0 0 0 0 0 0 0 0 0 0 0 0 0 0 0 0 0 0 0 0 0 0 0 0 0 0 0 0 0 0 0 0 0 0 0 0 0
0 0 0 0 0 0 0 0 0 0 0 0 0 0 0 0 0 0 0 0 0 0 0 0 0 0 0 0 -0 -0 0 0 0 0 0 0 0 0 0 0 0 0 0
0 0 0 0 0 0 0 0 0 0 0 0 0 0 0 0 0 0 0 0 0 -0 0 0 0 0 0 0 0 0 0 0 0 0 0 0 0 0 0 0 0 0 0
0 0 0 0 0 0 0 0 0 0 0 0 0 0 0 0 0 0 -0 -0 -0 -0 0 0 0 0 0 0 0 0 0 0 0 0 0 0 0 0 0 0 0 0 0
0 0 0 0 0 0 0 0 0 0 0 0 0 0 0 0 0 0 0 0 0 0 0 0 0 0 0 0 0 0 0 0 0 0 0 0 0 0 0 0 0 0 0
0 0 0 0 0 0 0 0 0 0 0 0 0 0 0 0 0 0 0 0 0 0 0 0 0 0 0 0 0 0 0 0 0 0 0 0 0 0 0 0 0 0 0
0 0 0 0 0 0 0 0 0 0 0 0 0 0 0 0 0 0 0 0 0 0 0 0 0 0 0 0 0 0 0 0 0 0 0 0 0 0 0 0 0 0 0
0 0 0 0 0 0 0 0 0 0 0 0 0 0 0 0 0 0 0 0 0 0 0 0 0 0 0 0 0 0 0 0 0 0 0 0 0 0 0 0 0 0 0
0 0 0 0 0 0 0 0 0 0 0 0 0 0 0 0 0 0 0 0 0 0 0 0 0 0 0 0 0 0 0 0 0 0 0 0 0 0 0 0 0 0 0
0 0 0 0 0 0 0 0 0 0 0 0 0 0 0 0 0 0 0 0 0 0 0 0 0 0 0 0 0 0 0 0 0 0 0 0 0 0 0 0 0 0 0
0 0 0 0 0 0 0 0 0 0 0 0 0 0 0 0 0 0 0 0 0 0 0 0 0 0 0 0 0 0 0 0 0 0 0 0 0 0 0 0 0 0 0
0 0 0 0 0 0 0 0 0 0 0 0 0 0 0 0 0 0 0 0 0 0 0 0 0 0 0 0 0 0 0 0 0 0 0 0 0 0 0 0 0 0 0
Wind_Speed_500mb
43 34 29 27 28 34 41 47 52 52 56 61 65 66 68 68 66 72 82 96 103 105 110 115 114 106 111 106 106 102 94 90 73 58 64 52 54 65 73 65 56 52 42
49 41 35 30 35 44 45 49 55 59 61 65 68 71 71 69 68 71 77 86 95 97 104 109 113 94 105 113 104 98 95 92 81 64 63 51 56 59 65 61 56 47 46
49 53 52 53 54 54 57 58 64 68 70 70 74 77 75 72 72 71 73 77 81 84 98 101 101 95 104 101 96 97 90 82 77 66 57 49 64 63 65 62 55 49 52
49 53 58 59 59 61 64 68 72 74 78 78 78 76 75 74 72 71 72 74 75 76 87 94 96 101 101 101 93 95 86 76 72 58 45 54 68 62 63 55 55 55 51
52 54 58 61 66 69 70 72 75 78 79 76 76 77 76 75 74 74 72 73 72 77 84 83 93 97 91 93 93 92 79 78 69 57 53 60 57 67 62 62 58 59 44
59 63 64 65 66 68 72 74 74 71 72 75 78 75 74 72 69 68 71 75 75 77 83 84 87 89 88 86 86 76 75 79 76 64 72 63 67 65 59 56 64 52 47
66 64 63 64 67 66 67 69 71 69 68 67 67 67 70 67 64 66 68 72 74 76 79 81 83 84 84 79 73 66 66 70 59 66 66 69 68 52 49 65 56 52 46
65 63 60 59 58 57 61 66 68 68 68 66 66 63 63 62 58 60 61 67 70 75 75 74 76 78 79 76 68 66 66 63 64 77 69 60 41 43 50 47 45 46 46
60 64 65 63 63 60 60 62 66 69 69 67 65 59 59 58 54 55 57 65 71 73 72 72 69 71 68 66 64 72 70 70 74 54 52 49 37 40 40 46 43 44 45
62 60 60 66 71 70 67 66 62 63 65 65 64 59 57 57 52 54 55 64 67 66 66 65 66 61 55 54 64 75 74 78 63 66 51 37 32 26 36 39 40 46 43
74 74 72 66 62 68 70 69 70 64 59 57 59 56 55 53 49 50 51 61 58 58 60 60 59 51 42 53 69 70 69 68 69 47 32 23 19 29 37 42 43 43 41
69 71 69 68 73 71 67 64 61 61 60 54 49 46 41 40 40 43 48 47 42 47 48 46 44 41 47 55 61 62 66 58 54 38 25 16 27 36 45 47 47 47 39
66 62 61 59 59 62 63 56 54 51 48 45 39 33 34 34 35 34 32 37 39 27 27 26 25 32 43 50 56 57 71 55 37 24 21 31 35 37 37 40 44 42 44
63 59 58 60 60 56 52 48 46 41 36 30 26 24 26 26 24 20 23 37 33 18 13 14 17 29 44 53 54 54 55 28 26 27 35 37 38 38 38 39 42 41 44
57 57 61 59 54 50 47 42 38 33 30 23 19 19 17 15 13 15 25 31 27 14 12 15 25 40 51 54 55 51 34 35 36 37 45 43 44 41 41 40 41 44 47
61 63 59 54 50 49 43 34 26 19 15 11 9 8 8 11 15 19 20 24 16 12 15 23 32 50 56 60 65 59 57 46 41 41 48 49 45 42 43 43 46 48 48
60 56 52 46 40 29 22 15 13 10 10 9 10 11 8 9 14 21 21 21 18 20 21 25 30 36 40 42 45 46 49 54 49 52 56 46 43 43 43 46 50 51 54
58 50 42 33 24 17 13 9 6 5 5 5 7 7 10 10 16 22 19 16 18 21 15 19 24 25 27 30 34 37 38 45 53 49 44 43 41 42 43 49 53 56 55
47 39 33 28 23 18 14 15 12 10 7 5 6 7 10 15 16 18 19 22 23 24 22 20 19 20 19 21 28 34 38 40 40 40 39 38 41 46 48 50 50 49 48
33 30 26 22 19 18 18 17 14 9 7 8 8 9 9 10 10 13 15 15 15 21 25 25 23 24 27 28 32 38 37 35 34 35 37 38 40 42 43 43 44 45 46
23 23 20 17 18 18 16 12 7 4 4 3 3 5 4 5 10 12 12 12 13 14 17 20 24 28 30 32 31 29 29 30 32 32 33 35 37 38 38 41 43 42 42
21 23 21 19 18 15 11 8 5 4 3 2 2 3 3 3 4 5 5 6 8 10 12 16 19 23 25 27 30 31 33 34 35 37 39 41 42 43 45 45 44 42 42
18 17 18 16 13 11 11 10 9 7 5 4 2 1 1 2 3 5 7 10 13 16 20 23 25 28 30 31 32 34 36 37 40 42 43 44 45 46 46 46 42 42 44
17 18 18 16 15 13 12 11 10 8 7 6 5 3 3 4 7 9 12 15 19 22 26 29 31 33 35 36 37 38 39 40 41 42 44 45 46 45 45 45 45 45 42
16 17 16 15 14 13 11 10 9 7 5 4 4 6 9 12 15 18 22 25 29 32 34 36 37 38 40 41 41 42 43 44 44 43 44 45 45 46 48 48 46 42 40
15 14 13 13 11 10 9 7 5 5 6 8 11 15 18 21 25 29 32 34 36 37 39 41 41 41 42 42 43 43 44 44 44 45 46 47 47 47 47 45 43 41 43
Wind_Direction_500mb
340 310 291 281 279 282 281 280 275 274 273 273 272 271 268 266 265 263 261 257 257 255 255 256 255 255 263 263 261 258 253 245 236 244 239 231 240 231 218 219 221 228 236
325 318 297 290 301 301 293 289 282 278 275 274 273 272 269 267 266 264 263 262 260 255 253 253 255 255 256 261 258 255 249 239 232 233 235 226 226 220 214 220 222 228 238
315 311 301 290 291 292 289 286 285 280 273 269 269 269 270 270 271 270 268 266 263 257 258 257 256 261 262 253 253 251 244 238 230 231 224 219 227 208 207 214 219 231 237
301 297 291 289 290 290 287 283 283 283 278 274 272 272 273 272 268 267 266 264 263 258 256 258 259 260 260 257 254 249 243 230 229 223 217 228 213 211 210 213 223 233 234
304 297 293 290 289 286 284 281 281 280 278 277 275 274 272 269 267 268 266 265 263 260 257 257 260 262 257 256 253 251 236 228 218 205 212 200 220 213 212 218 227 230 237
302 299 296 290 284 283 283 284 283 282 279 277 275 274 273 269 268 268 267 265 260 257 258 260 263 261 257 259 254 244 241 237 207 197 200 219 217 214 216 224 227 231 230
306 302 300 299 295 292 288 286 286 286 283 279 275 274 273 272 270 269 268 265 261 260 260 260 261 260 255 250 243 236 234 219 210 200 211 218 212 218 219 229 235 233 235
311 307 305 302 300 299 297 294 289 285 283 282 279 275 272 269 266 264 264 262 258 257 259 263 265 262 256 248 238 232 208 200 204 210 221 218 215 217 235 243 240 236 241
318 314 310 307 304 302 300 297 292 288 284 281 277 272 269 268 266 263 260 258 261 259 261 260 259 260 257 245 232 212 199 192 205 209 233 215 229 233 248 246 242 247 251
306 308 314 316 310 306 305 301 298 293 289 282 275 270 266 265 262 263 259 258 259 259 259 261 260 256 246 238 224 204 194 200 203 218 215 220 235 261 269 247 245 248 252
305 304 305 302 305 309 310 308 304 298 290 284 277 271 268 266 263 258 254 261 263 260 260 261 257 249 221 219 211 202 197 205 216 209 211 222 251 269 255 250 251 251 257
303 302 300 301 300 296 296 296 295 293 292 286 283 282 275 268 262 257 255 255 256 257 262 261 259 245 218 215 205 197 209 210 222 205 209 244 274 278 258 251 251 253 256
304 301 299 299 298 300 296 292 290 284 281 279 281 282 283 271 267 260 251 232 243 251 252 258 255 230 210 200 208 209 212 209 199 218 260 278 283 282 260 248 244 246 253
305 305 304 304 303 299 293 288 286 286 282 280 279 277 273 272 268 251 210 222 239 256 235 210 205 200 196 199 209 219 209 221 249 265 275 279 285 275 256 249 251 252 251
305 307 309 303 300 296 289 284 279 276 274 268 263 260 258 254 246 221 206 215 232 243 217 189 185 186 191 199 209 200 223 240 252 263 273 277 284 267 258 256 253 254 255
301 302 302 298 292 287 280 272 267 257 250 247 231 215 211 207 184 177 183 201 211 200 191 184 180 188 192 203 211 224 235 239 246 261 279 278 268 257 256 255 256 259 263
292 290 290 290 287 275 262 247 236 207 169 128 105 101 115 131 140 156 174 172 165 170 186 188 192 197 207 214 222 230 239 248 253 272 279 269 265 258 255 254 256 258 262
288 285 282 279 266 254 237 223 216 198 197 163 138 127 121 121 144 144 155 158 166 191 204 209 213 216 224 231 240 247 250 253 264 269 267 263 259 256 259 255 254 259 263
282 274 268 259 248 221 211 208 220 205 205 192 150 135 133 125 133 150 165 193 193 203 230 246 248 253 253 256 257 254 253 256 261 262 261 258 256 258 259 257 258 258 259
262 253 245 233 222 205 195 196 200 173 150 143 146 149 158 152 157 166 186 202 216 227 238 250 256 263 260 257 259 266 267 263 258 257 256 256 256 256 255 254 254 257 263
238 228 204 187 188 183 174 172 161 143 137 134 89 81 120 144 189 200 205 210 219 228 240 246 251 254 256 258 259 261 262 259 259 260 261 260 260 260 258 257 259 260 260
199 187 173 170 168 174 176 170 173 180 166 148 133 129 167 166 181 196 209 233 251 259 265 268 270 273 275 276 277 276 272 271 270 267 264 263 263 262 262 262 261 260 259
178 174 169 163 166 171 174 179 188 194 195 201 219 231 226 237 252 265 268 269 270 274 275 276 277 276 277 276 275 274 273 271 269 270 270 269 268 265 263 262 261 260 261
165 162 162 165 172 177 183 185 185 186 183 181 182 198 236 262 272 279 285 290 292 288 288 287 285 284 283 282 281 279 277 276 274 272 269 269 266 263 262 264 264 264 264
157 158 159 162 166 169 170 163 159 165 177 204 245 271 284 292 294 292 292 291 289 289 288 286 286 286 286 285 283 281 279 278 276 274 272 270 269 269 269 269 266 264 260
142 146 149 146 141 144 154 164 185 221 252 270 279 283 287 292 293 292 290 290 290 290 291 290 290 289 287 286 284 283 282 279 276 273 271 270 270 269 268 267 264 260 257
Wind_Speed_850mb
43 34 29 27 28 34 41 47 52 52 56 61 65 66 68 68 66 72 82 96 103 105 110 115 114 106 111 106 106 102 94 90 73 58 64 52 54 65 73 65 56 52 42
49 41 35 30 35 44 45 49 55 59 61 65 68 71 71 69 68 71 77 86 95 97 104 109 113 94 105 113 104 98 95 92 81 64 63 51 56 59 65 61 56 47 46
49 53 52 53 54 54 57 58 64 68 70 70 74 77 75 72 72 71 73 77 81 84 98 101 101 95 104 101 96 97 90 82 77 66 57 49 64 63 65 62 55 49 52
49 53 58 59 59 61 64 68 72 74 78 78 78 76 75 74 72 71 72 74 75 76 87 94 96 101 101 101 93 95 86 76 72 58 45 54 68 62 63 55 55 55 51
52 54 58 61 66 69 70 72 75 78 79 76 76 77 76 75 74 74 72 73 72 77 84 83 93 97 91 93 93 92 79 78 69 57 53 60 57 67 62 62 58 59 44
59 63 64 65 66 68 72 74 74 71 72 75 78 75 74 72 69 68 71 75 75 77 83 84 87 89 88 86 86 76 75 79 76 64 72 63 67 65 59 56 64 52 47
66 64 63 64 67 66 67 69 71 69 68 67 67 67 70 67 64 66 68 72 74 76 79 81 83 84 84 79 73 66 66 70 59 66 66 69 68 52 49 65 56 52 46
65 63 60 59 58 57 61 66 68 68 68 66 66 63 63 62 58 60 61 67 70 75 75 74 76 78 79 76 68 66 66 63 64 77 69 60 41 43 50 47 45 46 46
60 64 65 63 63 60 60 62 66 69 69 67 65 59 59 58 54 55 57 65 71 73 72 72 69 71 68 66 64 72 70 70 74 54 52 49 37 40 40 46 43 44 45
62 60 60 66 71 70 67 66 62 63 65 65 64 59 57 57 52 54 55 64 67 66 66 65 66 61 55 54 64 75 74 78 63 66 51 37 32 26 36 39 40 46 43
74 74 72 66 62 68 70 69 70 64 59 57 59 56 55 53 49 50 51 61 58 58 60 60 59 51 42 53 69 70 69 68 69 47 32 23 19 29 37 42 43 43 41
69 71 69 68 73 71 67 64 61 61 60 54 49 46 41 40 40 43 48 47 42 47 48 46 44 41 47 55 61 62 66 58 54 38 25 16 27 36 45 47 47 47 39
66 62 61 59 59 62 63 56 54 51 48 45 39 33 34 34 35 34 32 37 39 27 27 26 25 32 43 50 56 57 71 55 37 24 21 31 35 37 37 40 44 42 44
63 59 58 60 60 56 52 48 46 41 36 30 26 24 26 26 24 20 23 37 33 18 13 14 17 29 44 53 54 54 55 28 26 27 35 37 38 38 38 39 42 41 44
57 57 61 59 54 50 47 42 38 33 30 23 19 19 17 15 13 15 25 31 27 14 12 15 25 40 51 54 55 51 34 35 36 37 45 43 44 41 41 40 41 44 47
61 63 59 54 50 49 43 34 26 19 15 11 9 8 8 11 15 19 20 24 16 12 15 23 32 50 56 60 65 59 57 46 41 41 48 49 45 42 43 43 46 48 48
60 56 52 46 40 29 22 15 13 10 10 9 10 11 8 9 14 21 21 21 18 20 21 25 30 36 40 42 45 46 49 54 49 52 56 46 43 43 43 46 50 51 54
58 50 42 33 24 17 13 9 6 5 5 5 7 7 10 10 16 22 19 16 18 21 15 19 24 25 27 30 34 37 38 45 53 49 44 43 41 42 43 49 53 56 55
47 39 33 28 23 18 14 15 12 10 7 5 6 7 10 15 16 18 19 22 23 24 22 20 19 20 19 21 28 34 38 40 40 40 39 38 41 46 48 50 50 49 48
33 30 26 22 19 18 18 17 14 9 7 8 8 9 9 10 10 13 15 15 15 21 25 25 23 24 27 28 32 38 37 35 34 35 37 38 40 42 43 43 44 45 46
23 23 20 17 18 18 16 12 7 4 4 3 3 5 4 5 10 12 12 12 13 14 17 20 24 28 30 32 31 29 29 30 32 32 33 35 37 38 38 41 43 42 42
21 23 21 19 18 15 11 8 5 4 3 2 2 3 3 3 4 5 5 6 8 10 12 16 19 23 25 27 30 31 33 34 35 37 39 41 42 43 45 45 44 42 42
18 17 18 16 13 11 11 10 9 7 5 4 2 1 1 2 3 5 7 10 13 16 20 23 25 28 30 31 32 34 36 37 40 42 43 44 45 46 46 46 42 42 44
17 18 18 16 15 13 12 11 10 8 7 6 5 3 3 4 7 9 12 15 19 22 26 29 31 33 35 36 37 38 39 40 41 42 44 45 46 45 45 45 45 45 42
16 17 16 15 14 13 11 10 9 7 5 4 4 6 9 12 15 18 22 25 29 32 34 36 37 38 40 41 41 42 43 44 44 43 44 45 45 46 48 48 46 42 40
15 14 13 13 11 10 9 7 5 5 6 8 11 15 18 21 25 29 32 34 36 37 39 41 41 41 42 42 43 43 44 44 44 45 46 47 47 47 47 45 43 41 43
Wind_Direction_850mb
340 310 291 281 279 282 281 280 275 274 273 273 272 271 268 266 265 263 261 257 257 255 255 256 255 255 263 263 261 258 253 245 236 244 239 231 240 231 218 219 221 228 236
325 318 297 290 301 301 293 289 282 278 275 274 273 272 269 267 266 264 263 262 260 255 253 253 255 255 256 261 258 255 249 239 232 233 235 226 226 220 214 220 222 228 238
315 311 301 290 291 292 289 286 285 280 273 269 269 269 270 270 271 270 268 266 263 257 258 257 256 261 262 253 253 251 244 238 230 231 224 219 227 208 207 214 219 231 237
301 297 291 289 290 290 287 283 283 283 278 274 272 272 273 272 268 267 266 264 263 258 256 258 259 260 260 257 254 249 243 230 229 223 217 228 213 211 210 213 223 233 234
304 297 293 290 289 286 284 281 281 280 278 277 275 274 272 269 267 268 266 265 263 260 257 257 260 262 257 256 253 251 236 228 218 205 212 200 220 213 212 218 227 230 237
302 299 296 290 284 283 283 284 283 282 279 277 275 274 273 269 268 268 267 265 260 257 258 260 263 261 257 259 254 244 241 237 207 197 200 219 217 214 216 224 227 231 230
306 302 300 299 295 292 288 286 286 286 283 279 275 274 273 272 270 269 268 265 261 260 260 260 261 260 255 250 243 236 234 219 210 200 211 218 212 218 219 229 235 233 235
311 307 305 302 300 299 297 294 289 285 283 282 279 275 272 269 266 264 264 262 258 257 259 263 265 262 256 248 238 232 208 200 204 210 221 218 215 217 235 243 240 236 241
318 314 310 307 304 302 300 297 292 288 284 281 277 272 269 268 266 263 260 258 261 259 261 260 259 260 257 245 232 212 199 192 205 209 233 215 229 233 248 246 242 247 251
306 308 314 316 310 306 305 301 298 293 289 282 275 270 266 265 262 263 259 258 259 259 259 261 260 256 246 238 224 204 194 200 203 218 215 220 235 261 269 247 245 248 252
305 304 305 302 305 309 310 308 304 298 290 284 277 271 268 266 263 258 254 261 263 260 260 261 257 249 221 219 211 202 197 205 216 209 211 222 251 269 255 250 251 251 257
303 302 300 301 300 296 296 296 295 293 292 286 283 282 275 268 262 257 255 255 256 257 262 261 259 245 218 215 205 197 209 210 222 205 209 244 274 278 258 251 251 253 256
304 301 299 299 298 300 296 292 290 284 281 279 281 282 283 271 267 260 251 232 243 251 252 258 255 230 210 200 208 209 212 209 199 218 260 278 283 282 260 248 244 246 253
305 305 304 304 303 299 293 288 286 286 282 280 279 277 273 272 268 251 210 222 239 256 235 210 205 200 196 199 209 219 209 221 249 265 275 279 285 275 256 249 251 252 251
305 307 309 303 300 296 289 284 279 276 274 268 263 260 258 254 246 221 206 215 232 243 217 189 185 186 191 199 209 200 223 240 252 263 273 277 284 267 258 256 253 254 255
301 302 302 298 292 287 280 272 267 257 250 247 231 215 211 207 184 177 183 201 211 200 191 184 180 188 192 203 211 224 235 239 246 261 279 278 268 257 256 255 256 259 263
292 290 290 290 287 275 262 247 236 207 169 128 105 101 115 131 140 156 174 172 165 170 186 188 192 197 207 214 222 230 239 248 253 272 279 269 265 258 255 254 256 258 262
288 285 282 279 266 254 237 223 216 198 197 163 138 127 121 121 144 144 155 158 166 191 204 209 213 216 224 231 240 247 250 253 264 269 267 263 259 256 259 255 254 259 263
282 274 268 259 248 221 211 208 220 205 205 192 150 135 133 125 133 150 165 193 193 203 230 246 248 253 253 256 257 254 253 256 261 262 261 258 256 258 259 257 258 258 259
262 253 245 233 222 205 195 196 200 173 150 143 146 149 158 152 157 166 186 202 216 227 238 250 256 263 260 257 259 266 267 263 258 257 256 256 256 256 255 254 254 257 263
238 228 204 187 188 183 174 172 161 143 137 134 89 81 120 144 189 200 205 210 219 228 240 246 251 254 256 258 259 261 262 259 259 260 261 260 260 260 258 257 259 260 260
199 187 173 170 168 174 176 170 173 180 166 148 133 129 167 166 181 196 209 233 251 259 265 268 270 273 275 276 277 276 272 271 270 267 264 263 263 262 262 262 261 260 259
178 174 169 163 166 171 174 179 188 194 195 201 219 231 226 237 252 265 268 269 270 274 275 276 277 276 277 276 275 274 273 271 269 270 270 269 268 265 263 262 261 260 261
165 162 162 165 172 177 183 185 185 186 183 181 182 198 236 262 272 279 285 290 292 288 288 287 285 284 283 282 281 279 277 276 274 272 269 269 266 263 262 264 264 264 264
157 158 159 162 166 169 170 163 159 165 177 204 245 271 284 292 294 292 292 291 289 289 288 286 286 286 286 285 283 281 279 278 276 274 272 270 269 269 269 269 266 264 260
142 146 149 146 141 144 154 164 185 221 252 270 279 283 287 292 293 292 290 290 290 290 291 290 290 289 287 286 284 283 282 279 276 273 271 270 270 269 268 267 264 260 257